EW4214 Weather Reports


Display with metric or nautical units.
time (UTC)temp
F
wind
direction
speed
MPH
gust
MPH
rain 1hr
in
rain 24hr
in
rain mn
in
humidity
%
barometer
mb
20260831023954 84 293 1.0 3.0 0.00 0.00 0.00 83 1008.5
20260831022951 84 261 2.0 5.0 0.00 0.00 0.00 84 1008.6
20260831021947 83 230 3.0 4.0 0.00 0.00 0.00 85 1008.4
20260831021449 83 214 0.0 2.0 0.00 0.00 0.00 85 1008.4
20260831015940 83 107 0.0 2.0 0.00 0.00 0.00 85 1008.3
20260831014935 83 218 0.0 1.0 0.00 0.00 0.00 85 1008.4
20260831013933 83 94 0.0 1.0 0.00 0.00 0.00 85 1008.4
20260831012928 83 154 0.0 2.0 0.00 0.00 0.00 85 1008.3
20260831011924 83 336 1.0 2.0 0.00 0.00 0.00 85 1008.2
20260831010920 83 80 0.0 1.0 0.00 0.00 0.00 85 1008.2
20260831005914 83 310 0.0 1.0 0.00 0.00 0.00 84 1008.1
20260831004912 83 89 0.0 1.0 0.00 0.00 0.00 84 1008.0
20260831003917 83 309 0.0 1.0 0.00 0.00 0.00 84 1007.9
20260831002913 83 130 0.0 0.0 0.00 0.00 0.00 84 1007.9
20260831001913 83 135 0.0 0.0 0.00 0.00 0.00 84 1007.6
20260831000910 83 284 0.0 1.0 0.00 0.00 0.00 83 1007.5
20260831000853 83 188 0.0 1.0 0.00 0.00 0.00 83 1007.2
20260830234911 83 224 0.0 0.0 0.00 0.00 0.00 83 1007.2
20260830233909 83 242 0.0 0.0 0.00 0.00 0.00 83 1007.3
20260830232910 83 284 0.0 0.0 0.00 0.00 0.00 83 1007.2
20260830231910 83 249 0.0 1.0 0.00 0.00 0.00 83 1007.2
20260830230909 83 269 0.0 1.0 0.00 0.00 0.00 82 1007.2
20260830225909 83 255 0.0 0.0 0.00 0.00 0.00 82 1007.1
20260830225345 83 224 0.0 1.0 0.00 0.00 0.00 82 1006.9
20260830223908 83 230 0.0 1.0 0.00 0.00 0.00 82 1007.0
20260830222908 83 308 0.0 0.0 0.00 0.00 0.00 82 1006.8
20260830221902 83 269 0.0 0.0 0.00 0.00 0.00 82 1006.7
20260830220907 83 53 0.0 1.0 0.00 0.00 0.00 82 1006.7
20260830215902 83 117 0.0 1.0 0.00 0.00 0.00 82 1006.6
20260830214907 83 297 0.0 1.0 0.00 0.00 0.00 82 1006.7
20260830213907 83 269 0.0 1.0 0.00 0.00 0.00 82 1006.7
20260830212907 83 129 0.0 1.0 0.00 0.00 0.00 82 1006.8
20260830211905 83 293 0.0 1.0 0.00 0.00 0.00 82 1006.8
20260830211352 83 218 0.0 1.0 0.00 0.00 0.00 81 1006.9
20260830210348 83 89 0.0 1.0 0.00 0.00 0.00 81 1006.9
20260830204904 83 156 0.0 1.0 0.00 0.00 0.00 81 1006.9
20260830203907 83 263 0.0 1.0 0.00 0.00 0.00 81 1006.8
20260830203853 83 124 0.0 1.0 0.00 0.00 0.00 81 1006.9
20260830201910 83 326 0.0 2.0 0.00 0.00 0.00 81 1007.0
20260830201344 84 89 0.0 1.0 0.00 0.00 0.00 81 1006.9
20260830195904 84 124 0.0 2.0 0.00 0.00 0.00 80 1006.9
20260830195344 84 135 0.0 0.0 0.00 0.00 0.00 80 1007.1
20260830193903 84 124 0.0 1.0 0.00 0.00 0.00 80 1007.1
20260830192903 84 126 0.0 1.0 0.00 0.00 0.00 80 1007.2
20260830191903 84 157 0.0 1.0 0.00 0.00 0.00 80 1007.2
20260830190903 84 235 0.0 1.0 0.00 0.00 0.00 80 1007.1
20260830185902 84 293 0.0 2.0 0.00 0.00 0.00 80 1007.1
20260830184903 84 301 0.0 1.0 0.00 0.00 0.00 80 1007.2
20260830183902 84 257 0.0 0.0 0.00 0.00 0.00 80 1007.1
20260830183344 84 44 0.0 1.0 0.00 0.00 0.00 80 1007.4
20260830181902 84 75 0.0 1.0 0.00 0.00 0.00 79 1007.5
20260830180903 84 224 0.0 1.0 0.00 0.00 0.00 79 1007.5
20260830180341 84 50 1.0 2.0 0.00 0.00 0.00 79 1007.7
20260830174902 84 44 0.0 1.0 0.00 0.00 0.00 79 1007.8
20260830173902 84 343 0.0 1.0 0.00 0.00 0.00 79 1007.9
20260830172904 84 180 0.0 1.0 0.00 0.00 0.00 79 1007.9
20260830171903 84 151 0.0 1.0 0.00 0.00 0.00 79 1007.9
20260830171344 84 76 1.0 1.0 0.00 0.00 0.00 79 1008.0
20260830165902 84 135 0.0 2.0 0.00 0.00 0.00 79 1008.1
20260830165602 84 233 0.0 1.0 0.00 0.00 0.00 79 1008.2
20260830164554 84 99 0.0 1.0 0.00 0.00 0.00 79 1008.2
20260830163031 84 236 0.0 0.0 0.00 0.00 0.00 79 1008.2
20260830162025 85 47 0.0 1.0 0.00 0.00 0.00 79 1008.2
20260830161028 85 103 0.0 1.0 0.00 0.00 0.00 79 1008.3
20260830160546 85 81 0.0 1.0 0.00 0.00 0.00 79 1008.4
20260830155021 85 279 0.0 1.0 0.00 0.00 0.00 79 1008.5
20260830154020 85 116 0.0 2.0 0.00 0.00 0.00 79 1008.4
20260830153019 85 117 0.0 1.0 0.00 0.00 0.00 78 1008.6
20260830152020 85 119 0.0 1.0 0.00 0.00 0.00 78 1008.5
20260830151016 85 124 0.0 1.0 0.00 0.00 0.00 77 1008.6
20260830150012 85 269 0.0 2.0 0.00 0.00 0.00 77 1008.5
20260830145010 85 243 0.0 2.0 0.00 0.00 0.00 77 1008.5
20260830144004 85 92 0.0 2.0 0.00 0.00 0.00 76 1008.6
20260830143005 85 97 1.0 2.0 0.00 0.00 0.00 77 1008.4
20260830142000 85 84 1.0 2.0 0.00 0.00 0.00 77 1008.4
20260830141020 85 291 0.0 1.0 0.00 0.00 0.00 78 1008.2
20260830140957 85 284 0.0 2.0 0.00 0.00 0.00 77 1008.4
20260830134947 85 164 0.0 2.0 0.00 0.00 0.00 79 1008.2
20260830133944 86 24 0.0 3.0 0.00 0.00 0.00 79 1007.9
20260830132937 86 46 1.0 2.0 0.00 0.00 0.00 79 1007.9
20260830131935 86 48 0.0 3.0 0.00 0.00 0.00 79 1007.8
20260830131436 86 235 0.0 2.0 0.00 0.00 0.00 79 1007.7
20260830125927 86 221 0.0 1.0 0.00 0.00 0.00 79 1007.7
20260830124923 86 99 0.0 2.0 0.00 0.00 0.00 79 1007.5
20260830123918 86 269 0.0 3.0 0.00 0.00 0.00 79 1007.6
20260830122915 86 64 1.0 4.0 0.00 0.00 0.00 79 1007.7
20260830121909 86 127 2.0 2.0 0.00 0.00 0.00 80 1007.5
20260830120904 86 305 0.0 0.0 0.00 0.00 0.00 79 1007.2
20260830115903 86 50 0.0 1.0 0.00 0.00 0.00 79 1007.1
20260830114902 86 230 0.0 0.0 0.00 0.00 0.00 79 1007.1
20260830113903 86 15 0.0 2.0 0.00 0.00 0.00 78 1006.8
20260830112902 86 297 0.0 2.0 0.00 0.00 0.00 78 1006.6
20260830111902 86 224 0.0 2.0 0.00 0.00 0.00 77 1006.1
20260830110902 86 57 0.0 1.0 0.00 0.00 0.00 77 1005.7
20260830105901 86 246 0.0 2.0 0.00 0.00 0.00 76 1005.9
20260830104906 86 244 2.0 3.0 0.00 0.00 0.00 75 1005.6
20260830103904 86 233 1.0 4.0 0.00 0.00 0.00 75 1005.5
20260830102902 86 248 2.0 4.0 0.00 0.00 0.00 74 1005.4
20260830101901 86 243 3.0 4.0 0.00 0.00 0.00 73 1005.2
20260830101342 87 247 3.0 4.0 0.00 0.00 0.00 73 1005.3
20260830095901 87 223 2.0 4.0 0.00 0.00 0.00 72 1005.3
20260830094903 87 179 2.0 3.0 0.00 0.00 0.00 72 1005.4
20260830093903 87 250 0.0 10.0 0.00 0.00 0.00 71 1006.1
20260830092902 87 266 7.0 16.0 0.00 0.00 0.00 71 1006.2
20260830091902 88 196 2.0 6.0 0.00 0.00 0.00 70 1005.3
20260830090901 88 95 5.0 8.0 0.00 0.00 0.00 69 1004.7
20260830085900 88 318 3.0 8.0 0.00 0.00 0.00 70 1004.9
20260830084902 88 269 2.0 4.0 0.00 0.00 0.00 71 1004.5
20260830083903 88 296 2.0 4.0 0.00 0.00 0.00 71 1004.7
20260830082901 88 257 2.0 6.0 0.00 0.00 0.00 70 1004.8
20260830081902 88 261 3.0 9.0 0.00 0.00 0.00 69 1004.9
20260830080900 88 267 4.0 6.0 0.00 0.00 0.00 69 1005.0
20260830075901 88 275 3.0 5.0 0.00 0.00 0.00 69 1004.9
20260830074902 88 269 3.0 6.0 0.00 0.00 0.00 69 1005.2
20260830073901 88 227 0.0 7.0 0.00 0.00 0.00 69 1005.4
20260830072902 88 235 2.0 5.0 0.00 0.00 0.00 70 1005.5
20260830071902 88 251 2.0 5.0 0.00 0.00 0.00 70 1005.7
20260830070901 88 252 1.0 8.0 0.00 0.00 0.00 70 1005.7
20260830065902 87 265 2.0 7.0 0.00 0.00 0.00 70 1005.8
20260830064902 87 79 2.0 5.0 0.00 0.00 0.00 70 1006.0
20260830063903 87 247 2.0 5.0 0.00 0.00 0.00 70 1006.2
20260830062902 87 267 2.0 4.0 0.00 0.00 0.00 70 1006.3
20260830061907 87 316 1.0 4.0 0.00 0.00 0.00 70 1006.6
20260830060902 87 246 2.0 6.0 0.00 0.00 0.00 70 1006.7
20260830055902 87 236 3.0 5.0 0.00 0.00 0.00 70 1007.0
20260830054901 87 269 2.0 8.0 0.00 0.00 0.00 70 1007.0
20260830054826 87 296 2.0 6.0 0.00 0.00 0.00 70 1007.3
20260830052903 87 264 5.0 8.0 0.00 0.00 0.00 69 1007.4
20260830051903 87 222 2.0 8.0 0.00 0.00 0.00 71 1007.5
20260830051345 87 252 2.0 6.0 0.00 0.00 0.00 70 1007.7
20260830050336 87 264 2.0 9.0 0.00 0.00 0.00 70 1007.9
20260830044902 87 253 3.0 7.0 0.00 0.00 0.00 71 1007.8
20260830043903 86 285 2.0 9.0 0.00 0.00 0.00 72 1007.9
20260830042903 86 292 2.0 6.0 0.00 0.00 0.00 72 1007.9
20260830041902 86 207 3.0 8.0 0.00 0.00 0.00 74 1008.0
20260830040902 86 309 2.0 5.0 0.00 0.00 0.00 74 1008.2
20260830035902 86 252 2.0 8.0 0.00 0.00 0.00 75 1008.4
20260830034901 86 274 3.0 6.0 0.00 0.00 0.00 75 1008.3
20260830034554 86 308 0.0 8.0 0.00 0.00 0.00 75 1008.3
20260830033032 86 273 2.0 7.0 0.00 0.00 0.00 76 1008.5
20260830032550 85 247 5.0 6.0 0.00 0.00 0.00 77 1008.5
20260830031027 85 178 2.0 6.0 0.00 0.00 0.00 77 1008.5
20260830030020 85 256 4.0 6.0 0.00 0.00 0.00 78 1008.3
20260830025018 85 264 2.0 5.0 0.00 0.00 0.00 78 1008.4